Location: Lafig�re
(44.4503°N, 4.0357°E)
Time: 15:27:58
(UTC+00:00)

Vanguard 2 Rocket - Pass Details

Date: 30 January 2021
Orbit: 554 x 3325 km, 32.9° (Epoch: 06 March)

Event Time Altitude Azimuth Distance (km) Brightness Sun altitude
Rises 09:30:42 0° 188° (S) 7,200 12.2 19.6°
Reaches altitude 10° 09:38:40 10° 170° (S) 6,275 12.5 20.4°
Maximum altitude 09:48:44 16° 140° (SE) 5,562 13.5 21.4°
Drops below altitude 10° 09:57:50 10° 108° (ESE) 5,664 11.8 22.3°
Sets 10:04:09 0° 91° (E) 6,220 11.6 22.9°
